Mason, MI

1:00 AM EDT on July 28, 2017 (GMT -0400)
Mason Jewett

Weather History for KTEW - August, 2012

Change the Weather History Date:

Sunday, August 5, 2012

  Actual Average (KLAN) Record (KLAN)
Temperature  
Mean Temperature 72 °F -  
Max Temperature 84 °F 80 °F 100 °F (1881)
Min Temperature 60 °F 55 °F 35 °F (1864)
Cooling Degree Days 8    
Growing Degree Days 22 (Base 50)    
Moisture  
Dew Point 60 °F    
Average Humidity 62    
Maximum Humidity 88    
Minimum Humidity 30    
Precipitation  
Precipitation 0.00 in - - ()
Sea Level Pressure  
Sea Level Pressure 29.97 in    
Wind  
Wind Speed 8 mph (West)    
Max Wind Speed 22 mph    
Max Gust Speed 30 mph    
Visibility 10 miles    
Events      
Averages and records for this station are not official NWS values.
T = Trace of Precipitation, MM = Missing Value Source: NWS Daily Summary

Daily Weather History Graph

Daily Weather History Graph

Search for Another Location

Airport or City:

Trip Planner

Search our weather history database for the weather conditions in past years. The results will help you decide how hot, cold, wet, or windy it might be!

Date:

Astronomy

Aug. 05, 2012 Rise Set
Actual Time 6:34 AM EDT 8:52 PM EDT
Civil Twilight 6:02 AM EDT 9:23 PM EDT
Nautical Twilight 5:23 AM EDT 10:02 PM EDT
Astronomical Twilight 4:40 AM EDT 10:45 PM EDT
Moon 10:23 PM EDT (8/5) 10:29 AM EDT (8/5)
Length of Visible Light 15h 20m
Length of Day
14h 17m
Waning Gibbous, 86% of the Moon is Illuminated
Aug 5
Waning Gibbous
Aug 9
Last Quarter
Aug 17
New
Aug 24
First Quarter
Aug 31
Full

Hourly Weather History & Observations

Time (EDT) Temp. Heat Index Dew Point Humidity Pressure Visibility Wind Dir Wind Speed Gust Speed Precip Events Conditions
12:13 AM 72.5 °F - 68.5 °F 87% 29.87 in 10.0 mi SW 4.6 mph - N/A   Mostly Cloudy
12:34 AM 72.5 °F - 68.4 °F 87% 29.86 in 10.0 mi Calm Calm - N/A   Mostly Cloudy
12:53 AM 71.8 °F - 68.2 °F 88% 29.85 in 10.0 mi SW 4.6 mph - N/A   Mostly Cloudy
1:13 AM 71.6 °F - 68.0 °F 88% 29.86 in 10.0 mi SW 5.8 mph - N/A   Overcast
1:32 AM 71.8 °F - 68.0 °F 88% 29.88 in 10.0 mi WSW 8.1 mph - N/A   Overcast
1:53 AM 72.3 °F - 68.0 °F 86% 29.89 in 10.0 mi WSW 6.9 mph - N/A   Overcast
2:13 AM 72.5 °F - 68.0 °F 86% 29.89 in 10.0 mi WSW 6.9 mph - N/A   Overcast
2:33 AM 72.5 °F - 67.6 °F 85% 29.89 in 10.0 mi WSW 3.5 mph - N/A   Overcast
2:53 AM 72.7 °F - 67.5 °F 84% 29.89 in 10.0 mi WSW 5.8 mph - N/A   Overcast
3:13 AM 72.1 °F - 67.5 °F 85% 29.89 in 10.0 mi SW 3.5 mph - N/A   Overcast
3:33 AM 71.8 °F - 67.6 °F 87% 29.88 in 10.0 mi SW 4.6 mph - N/A   Overcast
3:53 AM 72.1 °F - 67.6 °F 86% 29.87 in 10.0 mi SW 4.6 mph - N/A   Mostly Cloudy
4:13 AM 71.6 °F - 67.5 °F 87% 29.88 in 10.0 mi SW 4.6 mph - N/A   Scattered Clouds
4:33 AM 71.6 °F - 67.8 °F 88% 29.87 in 10.0 mi South 3.5 mph - N/A   Overcast
4:53 AM 71.6 °F - 68.0 °F 88% 29.88 in 10.0 mi Calm Calm - N/A   Overcast
5:12 AM 71.8 °F - 68.0 °F 88% 29.88 in 10.0 mi SW 5.8 mph - N/A   Overcast
5:33 AM 72.0 °F - 68.0 °F 87% 29.89 in 7.0 mi SW 8.1 mph - N/A   Overcast
5:53 AM 72.5 °F - 68.2 °F 86% 29.90 in 7.0 mi SW 8.1 mph - N/A   Overcast
6:13 AM 72.5 °F - 68.2 °F 86% 29.90 in 7.0 mi SW 6.9 mph - N/A   Overcast
6:33 AM 72.5 °F - 68.4 °F 87% 29.91 in 7.0 mi SW 6.9 mph - N/A   Overcast
6:53 AM 72.7 °F - 68.7 °F 87% 29.91 in 5.0 mi SW 5.8 mph - N/A   Overcast
7:12 AM 72.7 °F - 68.9 °F 88% 29.91 in 5.0 mi SW 8.1 mph - N/A   Overcast
7:33 AM 72.9 °F - 68.9 °F 87% 29.91 in 5.0 mi SW 6.9 mph - N/A   Overcast
7:53 AM 73.0 °F - 68.9 °F 87% 29.94 in 5.0 mi WSW 9.2 mph - N/A   Overcast
8:12 AM 73.2 °F - 68.9 °F 86% 29.92 in 7.0 mi West 10.4 mph - N/A   Overcast
8:33 AM 73.6 °F - 68.9 °F 85% 29.92 in 10.0 mi WNW 9.2 mph 20.7 mph N/A   Mostly Cloudy
8:53 AM 73.6 °F - 68.0 °F 83% 29.92 in 10.0 mi WNW 12.7 mph - N/A   Overcast
9:13 AM 73.9 °F - 66.6 °F 78% 29.92 in 10.0 mi WNW 10.4 mph - N/A   Mostly Cloudy
9:33 AM 74.3 °F - 66.2 °F 76% 29.94 in 10.0 mi WNW 15.0 mph 19.6 mph N/A   Scattered Clouds
9:53 AM 74.7 °F - 64.8 °F 71% 29.94 in 10.0 mi NW 13.8 mph 20.7 mph N/A   Mostly Cloudy
10:13 AM 74.5 °F - 62.8 °F 67% 29.96 in 10.0 mi WNW 13.8 mph 19.6 mph N/A   Scattered Clouds
10:33 AM 76.8 °F - 61.3 °F 59% 29.96 in 10.0 mi WNW 13.8 mph 18.4 mph N/A   Clear
10:53 AM 77.7 °F - 61.7 °F 58% 29.96 in 10.0 mi WNW 13.8 mph 18.4 mph N/A   Clear
11:13 AM 78.3 °F - 58.8 °F 51% 29.96 in 10.0 mi WNW 13.8 mph 20.7 mph N/A   Clear
11:33 AM 79.9 °F - 55.8 °F 43% 29.96 in 10.0 mi WNW 16.1 mph 21.9 mph N/A   Clear
11:53 AM 80.1 °F 80.1 °F 55.2 °F 42% 29.97 in 10.0 mi West 17.3 mph 20.7 mph N/A   Clear
12:13 PM 79.9 °F - 57.9 °F 47% 29.98 in 10.0 mi WNW 13.8 mph 21.9 mph N/A   Scattered Clouds
12:33 PM 79.9 °F - 58.5 °F 48% 29.98 in 10.0 mi West 18.4 mph 23.0 mph N/A   Overcast
12:53 PM 81.3 °F 81.6 °F 58.5 °F 46% 29.98 in 10.0 mi WNW 13.8 mph 19.6 mph N/A   Overcast
1:13 PM 82.4 °F 82.0 °F 57.0 °F 42% 29.98 in 10.0 mi WNW 16.1 mph 24.2 mph N/A   Overcast
1:33 PM 82.6 °F 82.2 °F 57.4 °F 42% 29.98 in 10.0 mi WNW 15.0 mph 23.0 mph N/A   Mostly Cloudy
1:53 PM 83.1 °F 82.3 °F 55.8 °F 39% 29.97 in 10.0 mi West 19.6 mph 26.5 mph N/A   Scattered Clouds
2:13 PM 84.2 °F 83.0 °F 55.2 °F 37% 29.98 in 10.0 mi West 17.3 mph 25.3 mph N/A   Scattered Clouds
2:33 PM 83.5 °F 82.6 °F 56.1 °F 39% 29.98 in 10.0 mi West 16.1 mph 21.9 mph N/A   Scattered Clouds
2:54 PM 83.8 °F 83.1 °F 57.0 °F 40% 29.98 in 10.0 mi WNW 16.1 mph 24.2 mph N/A   Scattered Clouds
3:13 PM 83.7 °F 82.7 °F 55.2 °F 38% 29.99 in 10.0 mi West 16.1 mph 25.3 mph N/A   Scattered Clouds
3:33 PM 83.7 °F - 52.5 °F 34% 29.99 in 10.0 mi West 17.3 mph 28.8 mph N/A   Clear
3:54 PM 84.2 °F 82.8 °F 54.1 °F 35% 30.00 in 10.0 mi WNW 15.0 mph 25.3 mph N/A   Scattered Clouds
4:13 PM 83.3 °F 82.1 °F 53.4 °F 36% 30.00 in 10.0 mi WNW 17.3 mph 25.3 mph N/A   Scattered Clouds
4:33 PM 82.8 °F - 51.1 °F 33% 30.01 in 10.0 mi WNW 21.9 mph 25.3 mph N/A   Clear
4:53 PM 82.6 °F - 50.0 °F 32% 30.01 in 10.0 mi WNW 18.4 mph 29.9 mph N/A   Clear
5:13 PM 82.4 °F - 47.7 °F 30% 30.01 in 10.0 mi WNW 18.4 mph 26.5 mph N/A   Clear
5:33 PM 81.0 °F - 49.8 °F 34% 30.02 in 10.0 mi WNW 16.1 mph 24.2 mph N/A   Clear
5:53 PM 80.8 °F - 52.2 °F 37% 30.03 in 7.0 mi NW 15.0 mph 20.7 mph N/A   Clear
6:13 PM 80.1 °F - 51.6 °F 37% 30.03 in 10.0 mi WNW 12.7 mph 20.7 mph N/A   Clear
6:33 PM 79.7 °F - 48.0 °F 33% 30.03 in 10.0 mi WNW 12.7 mph 21.9 mph N/A   Clear
6:53 PM 79.0 °F - 47.3 °F 33% 30.04 in 10.0 mi West 13.8 mph - N/A   Clear
7:13 PM 77.9 °F - 47.8 °F 35% 30.05 in 10.0 mi West 13.8 mph 20.7 mph N/A   Clear
7:33 PM 77.0 °F - 49.5 °F 38% 30.05 in 10.0 mi WNW 10.4 mph 17.3 mph N/A   Clear
7:53 PM 76.1 °F - 50.9 °F 41% 30.06 in 10.0 mi WNW 10.4 mph 17.3 mph N/A   Clear
8:13 PM 75.2 °F - 50.9 °F 42% 30.06 in 10.0 mi WNW 10.4 mph - N/A   Clear
8:33 PM 73.6 °F - 51.6 °F 46% 30.07 in 10.0 mi WNW 8.1 mph - N/A   Clear
8:53 PM 71.6 °F - 50.7 °F 48% 30.08 in 10.0 mi WNW 6.9 mph - N/A   Clear
9:13 PM 70.2 °F - 50.4 °F 49% 30.09 in 10.0 mi WNW 8.1 mph - N/A   Clear
9:34 PM 69.8 °F - 50.0 °F 49% 30.10 in 10.0 mi NW 6.9 mph - N/A   Clear
9:53 PM 68.9 °F - 50.7 °F 52% 30.11 in 10.0 mi NW 8.1 mph - N/A   Clear
10:13 PM 68.2 °F - 50.9 °F 54% 30.12 in 10.0 mi WNW 5.8 mph - N/A   Clear
10:34 PM 67.3 °F - 51.4 °F 57% 30.13 in 10.0 mi WNW 3.5 mph - N/A   Clear
10:53 PM 65.8 °F - 52.2 °F 61% 30.14 in 10.0 mi Calm Calm - N/A   Clear
11:13 PM 62.4 °F - 52.2 °F 69% 30.14 in 10.0 mi Calm Calm - N/A   Clear
11:34 PM 61.2 °F - 53.1 °F 75% 30.15 in 10.0 mi Calm Calm - N/A   Clear
11:53 PM 60.1 °F - 53.1 °F 78% 30.15 in 10.0 mi Calm Calm - N/A   Clear